Regional Weather Roundup
Issued by NWS

Home | Current Version | Previous Version | Graphics & Text | Print | Product List | Glossary Off
Versions: 1 2 3 4 5 6 7 8 9 10 11 12 13 14 15 16 17 18 19 20 21 22 23 24 25 26 27 28 29 30 31 32 33 34 35 36 37 38 39 40 41 42 43 44 45 46 47 48 49 50

000
ASUS43 KLSX 130407
RWRMO

WEATHER SUMMARY FOR MISSOURI
NATIONAL WEATHER SERVICE SPRINGFIELD MO
1000 PM CST TUE DEC 12 2017

NOTE: "FAIR" INDICATES FEW OR NO CLOUDS BELOW 12,000 FEET WITH NO
       SIGNIFICANT WEATHER AND/OR OBSTRUCTIONS TO VISIBILITY.
       CURRENT SKY AND/OR WEATHER CONDITIONS ARE NOT AVAILABLE FOR
       CHILLICOTHE AND FARMINGTON.

MOZ001>031-035>038-043-044-053-054-130500-
...NORTHERN AND WESTERN MISSOURI...

CITY           SKY/WX    TMP DP  RH WIND       PRES   REMARKS
KANSAS CTY INT CLEAR     34  26  72 S9        29.98F WCI  27
KANSAS C DTWN  CLEAR     35  24  64 S6        29.99F
LEE`S SUMMIT   CLEAR     34  24  67 S9        30.00F WCI  27
ST JOSEPH      CLEAR     30  25  81 SE6       29.97F WCI  24
CHILLICOTHE      N/A     27  18  69 S6        30.00F WCI  20
KIRKSVILLE     CLOUDY    24  19  81 SW7       29.98F WCI  16

$$
MOZ066>068-077>081-088>096-101>105-130500-
...SOUTHWEST MISSOURI...

CITY           SKY/WX    TMP DP  RH WIND       PRES   REMARKS
SPRINGFIELD    CLOUDY    28  12  51 S8        30.08F WCI  20
JOPLIN         CLOUDY    32  19  58 S9        30.09F WCI  24
BRANSON        CLOUDY    32   9  37 CALM      30.11F

$$
MOZ032>034-039>042-045>050-055>058-069>072-130500-
...CENTRAL MISSOURI...

CITY           SKY/WX    TMP DP  RH WIND       PRES   REMARKS
COLUMBIA       CLOUDY    26   8  46 S7        30.04F WCI  18
JEFFERSON CITY CLOUDY    26  10  50 CALM      30.07F
ROLLA          CLOUDY    25   8  48 SW7       30.07F WCI  17
SEDALIA        CLOUDY    31  18  58 S7        30.05F WCI  24
WHITEMAN AFB   CLEAR     26  17  68 SW9       29.99F WCI  17
WARRENSBURG    CLEAR     30  21  69 S7        30.03F WCI  23
OSAGE BEACH    CLOUDY    26  12  55 CALM      30.08F

$$
MOZ051-052-059>065-130500-
...EAST CENTRAL MISSOURI...

CITY           SKY/WX    TMP DP  RH WIND       PRES   REMARKS
ST LOUIS INTL  CLEAR     28   6  39 SW5       30.07F WCI  23
SPIRIT OF STL  CLOUDY    23  13  65 CALM      30.07F
ST CHARLES     CLOUDY    25   5  42 SW5       30.07F WCI  19

$$
MOZ072>076-082>087-097>100-106>115-130500-
...SOUTH CENTRAL AND SOUTHEAST MISSOURI...

CITY           SKY/WX    TMP DP  RH WIND       PRES   REMARKS
CAPE GIRARDEAU CLOUDY    24  13  62 CALM      30.12F
FARMINGTON     CLOUDY    24  11  57 CALM      30.09F
POPLAR BLUFF   CLEAR     26  19  74 CALM      30.12F
WEST PLAINS    CLOUDY    27   9  46 W5        30.10F WCI  22

$$



USA.gov is the U.S. government's official web portal to all federal, state and local government web resources and services.